Regional Weather Roundup
Issued by NWS

Home | Current Version | Previous Version | Graphics & Text | Print | Product List | Glossary On
Versions: 1 2 3 4 5 6 7 8 9 10 11 12 13 14 15 16 17 18 19 20 21 22 23 24 25 26 27 28 29 30 31 32 33 34 35 36 37 38 39 40 41 42 43 44 45 46 47 48 49 50
267
ASUS44 KLIX 182312
RWRLA
LOUISIANA WEATHER ROUNDUP
NATIONAL WEATHER SERVICE NEW ORLEANS LA
600 PM CDT SAT APR 18 2015

NOTE: "FAIR" INDICATES FEW OR NO CLOUDS BELOW 12,000 FEET WITH NO
      SIGNIFICANT WEATHER AND/OR OBSTRUCTIONS TO VISIBILITY.
      SKY/WX - SKY CONDITION AND SIGNIFICANT WEATHER.
      TMP - AIR TEMPERATURE.    DP   - DEWPOINT TEMPERATURE.
      RH  - RELATIVE HUMIDITY.  PRES - PRESSURE.
      HX  - HEAT INDEX.         WCI  - WIND CHILL INDEX.

*  THESE STATIONS ARE NOT NWS OR FAA STATIONS AND ARE NOT UNDER
   NWS QUALITY CONTROL.

LAZ040-048-061>063-065-066-069-190000-
SOUTHEAST LOUISIANA

CITY           SKY/WX    TMP DP  RH WIND       PRES   REMARKS
N.O. AUDUBON     N/A     72  72 100 MISG        N/A
N.O. INTL ARPT LGT RAIN  74  70  87 SE9       29.85F
N.O. LAKEFRONT LGT RAIN  76  70  82 SE8       29.87R
SLIDELL        LGT RAIN  73  72  96 S8        29.86S FOG
BATON ROUGE    CLOUDY    76  68  76 S10       29.82F
BOOTHVILLE     LGT RAIN  72  70  93 SE10G20   29.86F
BELLE CHASSE   LGT RAIN  72  70  93 W3        29.86S FOG
BOGALUSA*        N/A     77  69  76 S10       29.85F
GALLIANO*      RAIN      73  71  93 CALM      29.86S
NEW ROADS*     MOCLDY    74  68  80 S8        29.81F
GONZALES*      LGT RAIN  74  72  92 S5        29.85R
HAMMOND*       CLOUDY    73  70  88 S6        29.85S
HOUMA*         PTSUNNY   73  72  94 SE6       29.85S
PORT FOURCHON* FOG       73  72  94 S8        29.89S VSB 1

$$

LAZ041-044-053-054-190000-
SOUTHWEST LOUISIANA

CITY           SKY/WX    TMP DP  RH WIND       PRES   REMARKS
LAKE CHARLES   CLOUDY    75  71  87 S7        29.79F
LAFAYETTE      NOT AVBL
PATTERSON      CLOUDY    73  70  88 S6        29.87R
SALT POINT       N/A     72  71  97 SE3       29.84R
NEW IBERIA     NOT AVBL
CHENAULT AIRPK PTSUNNY   73  72  94 S9        29.79F

$$

LAZ027-028-190000-
CENTRAL LOUISIANA

CITY           SKY/WX    TMP DP  RH WIND       PRES   REMARKS
FORT POLK      LGT RAIN  72  69  92 W2        29.79F
ALEXANDRIA INT CLOUDY    71  69  93 CALM      29.79F
ALEXANDRIA     CLOUDY    71  68  90 CALM      29.81S

$$

LAZ001-002-190000-
NORTHWEST LOUISIANA

CITY           SKY/WX    TMP DP  RH WIND       PRES   REMARKS
SHREVEPORT     CLOUDY    74  65  73 NE6       29.78F
BARKSDALE AFB  CLOUDY    73  66  79 NE5       29.79F
DTN SHREVEPORT CLOUDY    72  64  76 E5        29.79F

$$

LAZ014-016-190000-
NORTHEAST LOUISIANA

CITY           SKY/WX    TMP DP  RH WIND       PRES   REMARKS
MONROE         CLOUDY    73  66  78 S13       29.79S
TALLULAH       LGT RAIN  70  67  90 SE8       29.82F

$$




USA.gov is the U.S. government's official web portal to all federal, state and local government web resources and services.